Effingham, IL

10:18 AM CST on December 06, 2019 (GMT -0600)
Effingham

Weather History for K1H2 - October, 2019

Change the Weather History Date:

Friday, October 18, 2019

  Actual Average (KMTO) Record (KMTO)
Temperature  
Mean Temperature 50 °F -  
Max Temperature 64 °F 60 °F 84 °F (1950)
Min Temperature 35 °F 40 °F 27 °F (1976)
Degree Days  
Heating Degree Days 16    
Moisture  
Dew Point 33 °F    
Average Humidity 60    
Maximum Humidity 87    
Minimum Humidity 28    
Precipitation  
Precipitation 0.00 in - - ()
Sea Level Pressure  
Sea Level Pressure 30.02 in    
Wind  
Wind Speed 3 mph ()    
Max Wind Speed 10 mph    
Max Gust Speed 17 mph    
Visibility 9.7 miles    
Events      
Averages and records for this station are not official NWS values.
T = Trace of Precipitation, MM = Missing Value Source: Averaged Metar Reports

Daily Weather History Graph

Daily Weather History Graph

Search for Another Location

Airport or City:

Astronomy

Oct. 18, 2019 Rise Set
Actual Time 7:06 AM CDT 6:11 PM CDT
Civil Twilight 6:39 AM CDT 6:38 PM CDT
Nautical Twilight 6:08 AM CDT 7:09 PM CDT
Astronomical Twilight 5:37 AM CDT 7:40 PM CDT
Moon 9:29 PM CDT (10/18) 11:37 AM CDT (10/18)
Length of Visible Light 11h 58m
Length of Day
11h 04m
Waning Gibbous, 78% of the Moon is Illuminated
Oct 18
Waning Gibbous
Oct 21
Last Quarter
Oct 27
New
Nov 4
First Quarter
Nov 12
Full

Hourly Weather History & Observations

Time (CDT) Temp. Windchill Dew Point Humidity Pressure Visibility Wind Dir Wind Speed Gust Speed Precip Events Conditions
12:15 AM 37.8 °F - 33.8 °F 86% 30.05 in 10.0 mi Calm Calm - N/A   Clear
12:35 AM 37.0 °F - 32.9 °F 85% 30.04 in 10.0 mi Calm Calm - N/A   Clear
12:55 AM 37.2 °F - 32.9 °F 84% 30.05 in 10.0 mi Calm Calm - N/A   Clear
1:15 AM 36.7 °F - 32.5 °F 85% 30.05 in 10.0 mi Calm Calm - N/A   Clear
1:35 AM 37.0 °F - 32.9 °F 85% 30.05 in 7.0 mi Calm Calm - N/A   Clear
1:55 AM 36.9 °F - 32.7 °F 85% 30.06 in 10.0 mi Calm Calm - N/A   Clear
2:15 AM 35.8 °F - 32.0 °F 86% 30.06 in 10.0 mi Calm Calm - N/A   Clear
2:35 AM 36.0 °F - 32.0 °F 86% 30.06 in 7.0 mi Calm Calm - N/A   Clear
2:55 AM 35.6 °F - 31.8 °F 86% 30.06 in 5.0 mi Calm Calm - N/A   Clear
3:15 AM 35.4 °F - 31.8 °F 87% 30.06 in 10.0 mi Calm Calm - N/A   Clear
3:35 AM 35.6 °F - 32.0 °F 87% 30.06 in 7.0 mi Calm Calm - N/A   Clear
3:55 AM 35.6 °F - 32.0 °F 87% 30.06 in 10.0 mi Calm Calm - N/A   Clear
4:15 AM 35.4 °F - 31.8 °F 87% 30.06 in 10.0 mi Calm Calm - N/A   Clear
4:35 AM 35.4 °F - 31.8 °F 87% 30.06 in 10.0 mi Calm Calm - N/A   Clear
4:55 AM 35.2 °F - 31.8 °F 87% 30.06 in 7.0 mi Calm Calm - N/A   Clear
5:15 AM 35.1 °F - 31.6 °F 87% 30.06 in 7.0 mi Calm Calm - N/A   Clear
5:35 AM 37.0 °F - 33.1 °F 86% 30.06 in 10.0 mi Calm Calm - N/A   Clear
5:55 AM 37.2 °F - 32.7 °F 84% 30.06 in 10.0 mi Calm Calm - N/A   Clear
6:15 AM 36.9 °F - 32.2 °F 83% 30.07 in 10.0 mi Calm Calm - N/A   Clear
6:35 AM 36.1 °F - 32.0 °F 85% 30.09 in 10.0 mi Calm Calm - N/A   Clear
6:55 AM 36.0 °F - 32.0 °F 86% 30.08 in 10.0 mi Calm Calm - N/A   Clear
7:15 AM 35.4 °F - 31.6 °F 86% 30.09 in 7.0 mi Calm Calm - N/A   Clear
7:55 AM 35.8 °F - 32.0 °F 86% 30.10 in 10.0 mi Calm Calm - N/A   Clear
8:15 AM 37.8 °F - 33.6 °F 85% 30.11 in 10.0 mi Calm Calm - N/A   Clear
8:35 AM 41.7 °F 38.8 °F 37.0 °F 83% 30.10 in 10.0 mi East 4.6 mph - N/A   Clear
8:55 AM 44.8 °F 41.6 °F 36.9 °F 74% 30.10 in 10.0 mi East 5.8 mph - N/A   Clear
9:15 AM 47.3 °F - 37.2 °F 68% 30.11 in 10.0 mi ESE 5.8 mph - N/A   Clear
9:35 AM 49.6 °F - 36.5 °F 61% 30.10 in 10.0 mi ESE 6.9 mph - N/A   Clear
9:55 AM 51.4 °F - 36.0 °F 56% 30.10 in 10.0 mi ESE 5.8 mph - N/A   Clear
10:15 AM 53.4 °F - 35.2 °F 50% 30.10 in 10.0 mi East 6.9 mph - N/A   Clear
10:35 AM 55.0 °F - 34.5 °F 46% 30.09 in 10.0 mi ESE 8.1 mph - N/A   Clear
10:55 AM 55.8 °F - 33.1 °F 42% 30.09 in 10.0 mi SE 8.1 mph - N/A   Clear
11:15 AM 56.3 °F - 32.2 °F 40% 30.09 in 10.0 mi ESE 10.4 mph - N/A   Clear
11:35 AM 57.7 °F - 32.2 °F 38% 30.09 in 10.0 mi ESE 6.9 mph - N/A   Clear
11:55 AM 58.8 °F - 32.2 °F 37% 30.08 in 10.0 mi SSE 10.4 mph - N/A   Clear
12:15 PM 59.7 °F - 32.0 °F 35% 30.07 in 10.0 mi SSE 8.1 mph - N/A   Clear
12:35 PM 60.8 °F - 32.0 °F 34% 30.06 in 10.0 mi SE 8.1 mph - N/A   Clear
12:55 PM 61.7 °F - 31.5 °F 32% 30.05 in 10.0 mi SE 8.1 mph - N/A   Clear
1:15 PM 61.9 °F - 31.1 °F 31% 30.04 in 10.0 mi ESE 8.1 mph - N/A   Clear
1:35 PM 62.4 °F - 30.9 °F 31% 30.04 in 10.0 mi SE 10.4 mph - N/A   Clear
1:55 PM 63.1 °F - 31.3 °F 30% 30.02 in 10.0 mi ESE 6.9 mph - N/A   Clear
2:15 PM 63.5 °F - 31.1 °F 30% 30.01 in 10.0 mi ESE 6.9 mph - N/A   Clear
2:35 PM 63.9 °F - 30.2 °F 28% 30.00 in 10.0 mi East 10.4 mph 16.1 mph N/A   Clear
2:55 PM 63.7 °F - 30.4 °F 29% 29.99 in 10.0 mi ESE 9.2 mph 17.3 mph N/A   Clear
3:15 PM 64.4 °F - 30.7 °F 28% 29.99 in 10.0 mi East 10.4 mph - N/A   Clear
3:35 PM 64.9 °F - 30.6 °F 28% 29.98 in 10.0 mi SE 9.2 mph - N/A   Clear
3:55 PM 64.6 °F - 30.7 °F 28% 29.98 in 10.0 mi ESE 6.9 mph - N/A   Clear
4:15 PM 64.4 °F - 30.2 °F 28% 29.97 in 10.0 mi ESE 9.2 mph - N/A   Clear
4:35 PM 63.9 °F - 30.2 °F 28% 29.97 in 10.0 mi SE 8.1 mph - N/A   Clear
4:55 PM 63.5 °F - 30.9 °F 29% 29.96 in 10.0 mi ESE 8.1 mph - N/A   Clear
5:15 PM 63.0 °F - 31.3 °F 30% 29.96 in 10.0 mi ESE 6.9 mph - N/A   Clear
5:35 PM 61.7 °F - 31.3 °F 32% 29.96 in 10.0 mi ESE 6.9 mph - N/A   Clear
5:55 PM 59.2 °F - 32.0 °F 36% 29.96 in 10.0 mi SE 4.6 mph - N/A   Clear
6:15 PM 55.0 °F - 32.7 °F 43% 29.95 in 10.0 mi East 4.6 mph - N/A   Clear
6:35 PM 51.3 °F - 34.5 °F 53% 29.95 in 10.0 mi East 4.6 mph - N/A   Clear
6:55 PM 51.6 °F - 34.2 °F 51% 29.94 in 10.0 mi East 5.8 mph - N/A   Clear
7:15 PM 50.7 °F - 34.5 °F 54% 29.94 in 10.0 mi East 6.9 mph - N/A   Clear
7:35 PM 50.4 °F - 34.9 °F 55% 29.95 in 10.0 mi Calm Calm - N/A   Clear
7:55 PM 49.1 °F - 35.1 °F 58% 29.95 in 10.0 mi East 5.8 mph - N/A   Clear
8:15 PM 49.3 °F - 35.2 °F 58% 29.95 in 10.0 mi East 3.5 mph - N/A   Clear
8:35 PM 49.1 °F - 36.0 °F 61% 29.95 in 10.0 mi East 3.5 mph - N/A   Clear
8:55 PM 47.8 °F - 35.6 °F 63% 29.95 in 10.0 mi East 3.5 mph - N/A   Clear
9:15 PM 45.5 °F - 37.2 °F 73% 29.95 in 10.0 mi Calm Calm - N/A   Clear
9:35 PM 47.5 °F - 36.5 °F 66% 29.95 in 10.0 mi East 4.6 mph - N/A   Clear
9:55 PM 43.9 °F 40.5 °F 36.0 °F 74% 29.94 in 10.0 mi East 5.8 mph - N/A   Clear
10:15 PM 45.5 °F 42.5 °F 35.6 °F 68% 29.93 in 10.0 mi ESE 5.8 mph - N/A   Clear
10:35 PM 47.3 °F - 36.5 °F 66% 29.92 in 10.0 mi East 8.1 mph - N/A   Clear
10:55 PM 49.1 °F - 36.0 °F 61% 29.92 in 10.0 mi East 8.1 mph - N/A   Clear
11:15 PM 49.1 °F - 36.0 °F 61% 29.92 in 10.0 mi ESE 8.1 mph - N/A   Clear
11:35 PM 48.2 °F - 35.6 °F 62% 29.92 in 10.0 mi East 5.8 mph - N/A   Clear
11:55 PM 47.1 °F - 35.6 °F 64% 29.91 in 10.0 mi East 4.6 mph - N/A   Clear